Weather in Shenyang

China     41°46′27″N   123°23′20″E
temp.,
°C
wind,
m/s
gust,
m/s
humid.,
%
clouds,
%
prec.,
mm/h
press.,
hPa
HPBL,
m
26 february, fri
fri2623:00−2n12270 0.0 102948
02:00−2e11280 0.0 102721
05:00−2sse11320 0.0 102821
08:00−1sse11320 0.0 102860
11:00+3nnw11220 0.0 1028342
14:00+5w11210 0.0 1026420
17:00+3nnw11250 0.0 102722
20:00+1se12310 0.0 102722
27 february, sat
sat2723:00+1sse23430 0.0 102744
02:000ssw23463 0.0 102741
05:000s234767 0.0 102662
08:00+2s254577 0.0 1026178
11:00+8ssw611307 0.0 1026935
14:00+11ssw712273 0.0 10241563
17:00+9ssw411350 0.0 1025583
20:00+5ssw5134810 0.0 1026505
28 february, sun
sun2823:00+4s515645 0.0 1026515
02:00+3s5136437 0.0 1026408
05:00+2s41270100 0.0 1026300
08:00+2ssw1275100 0.0 1028116
11:00+3wnw2381100 0.2 1028310
14:00−1n61092100 4.0 1029481
17:00−3nne61193100 2.0 1030628
20:00−4n61190100 2.9 1032679
1 march, mon
mon123:00−4nne71189100 0.4 1033795
02:00−5nne71270100 0.4 1035872
05:00−6nne71261100 0.0 1035869
08:00−7nne81360100 0.0 1036787
11:00−6nne81358100 0.0 1034792
14:00−5nne81254100 0.0 1031868
17:00−6nne71356100 0.0 1030817
20:00−8nne71258100 0.0 1031605
2 march, tue
tue223:00−9nne6116297 0.0 1031426
02:00−11n5106648 0.0 1030357
05:00−12n48680 0.0 1031309
08:00−11n36670 0.0 1032295
11:00−6n34520 0.0 1032457
14:00−3nnw23390 0.0 1031739
17:00−4w11420 0.0 1030436
20:00−5ssw22530 0.0 103172